VK2BNC-13 Weather Reports


time (UTC)temp
F
wind
direction
speed
knots
gust
knots
rain 1hr
in
rain 24hr
in
rain mn
in
humidity
%
barometer
mb
20260503211617 59 39 0.0 1.7 0.00 0.01 0.01 97
20260503210117 58 52 0.0 1.7 0.01 0.01 0.01 97
20260503204617 58 347 0.0 0.0 0.01 0.01 0.01 97
20260503203118 58 242 0.0 0.0 0.01 0.01 0.01 97
20260503201617 58 242 0.0 1.7 0.01 0.01 0.01 97
20260503200117 58 281 0.0 0.0 0.00 0.00 0.00 96
20260503194617 57 281 0.0 0.0 0.00 0.00 0.00 96
20260503193117 57 281 0.0 0.0 0.00 0.00 0.00 96
20260503191618 57 281 0.0 0.0 0.00 0.00 0.00 96
20260503190117 57 281 0.0 0.0 0.00 0.00 0.00 96
20260503184618 57 281 0.0 0.0 0.00 0.00 0.00 96
20260503183117 57 281 0.0 0.0 0.00 0.00 0.00 96
20260503181607 57 281 0.0 3.5 0.00 0.00 0.00 96
20260503180106 57 281 0.0 3.5 0.00 0.00 0.00 96
20260503174608 57 289 0.0 0.0 0.00 0.00 0.00 96
20260503173106 57 284 0.0 0.0 0.00 0.00 0.00 96
20260503171606 57 284 0.0 0.0 0.00 0.00 0.00 96
20260503081524 70 52 0.9 4.3 0.00 0.00 0.00 78
20260503071519 73 90 2.6 6.1 0.00 0.00 0.00 69
20260503054510 77 26 4.3 7.8 0.00 0.00 0.00 59
20260503053009 78 54 4.3 9.6 0.00 0.00 0.00 55
20260503051508 78 14 4.3 9.6 0.00 0.00 0.00 56
20260503050008 78 54 5.2 9.6 0.00 0.00 0.00 56
20260503044507 78 12 5.2 8.7 0.00 0.00 0.00 56
20260503043004 78 332 3.5 9.6 0.00 0.00 0.00 55
20260503041504 78 21 4.3 9.6 0.00 0.00 0.00 55
20260503040004 77 29 4.3 8.7 0.00 0.00 0.00 55
20260503034503 78 342 3.5 9.6 0.00 0.00 0.00 57
20260503033004 77 33 3.5 7.8 0.00 0.00 0.00 57
20260503031504 77 29 2.6 7.0 0.00 0.00 0.00 61
20260503030004 76 43 2.6 6.1 0.00 0.00 0.00 62
20260503024504 76 67 2.6 5.2 0.00 0.00 0.00 62
20260503023003 75 296 2.6 7.0 0.00 0.00 0.00 64
20260503021504 75 70 1.7 5.2 0.00 0.00 0.00 64
20260503020006 74 358 1.7 5.2 0.00 0.00 0.00 66
20260503014504 74 83 0.9 5.2 0.00 0.00 0.00 67
20260503011504 73 295 1.7 5.2 0.00 0.00 0.00 70
20260503010004 71 313 1.7 4.3 0.00 0.00 0.00 74
20260503004506 71 353 1.7 4.3 0.00 0.00 0.00 76
20260503003004 70 91 1.7 4.3 0.00 0.00 0.00 78
20260503001504 69 39 0.9 3.5 0.00 0.00 0.00 82
20260503000004 67 30 0.9 2.6 0.00 0.00 0.00 86
20260502234503 65 320 0.0 2.6 0.00 0.00 0.00 93
20260502233003 64 79 0.0 1.7 0.00 0.00 0.00 96
20260502231504 63 288 0.0 1.7 0.00 0.00 0.00 96
20260502230004 62 294 0.0 1.7 0.00 0.00 0.00 97
20260502224459 61 346 0.0 1.7 0.00 0.00 0.00 97
20260502222959 60 31 0.0 0.9 0.00 0.00 0.00 97
20260502221459 60 325 0.0 0.0 0.00 0.00 0.00 98
20260502215957 58 39 0.0 1.7 0.00 0.00 0.00 97
20260502214455 57 39 0.9 1.7 0.00 0.00 0.00 97
20260502212955 57 42 0.0 0.9 0.00 0.00 0.00 97